Vorticity
11 5 3 3 6 6 9 22 7 17 25 7 4 17 7 9 14 -7 26 43 23 14 17 20 17 -7 -2 1 -19 0 47 19 17 10 10 7 9 9 7 7 12 14 8 9 5 7 7
3 7 4 3 6 5 7 21 13 16 27 8 4 5 15 24 15 28 31 42 15 11 12 19 28 -3 14 25 29 -3 9 30 14 11 8 7 9 8 10 7 8 11 15 14 11 12 10
5 8 6 3 5 4 4 17 16 19 30 9 -13 -12 37 23 16 23 20 2 14 12 16 20 12 8 40 -3 11 -3 22 17 14 7 11 8 7 9 8 5 5 7 8 11 10 10 11
1 4 7 5 4 4 3 8 17 21 31 15 -0 13 19 -2 29 19 28 19 13 22 28 6 19 25 -22 13 18 11 14 30 9 10 5 7 9 7 7 11 9 5 5 7 7 7 8
9 -1 8 7 5 5 5 4 15 16 28 9 0 9 -6 2 6 32 29 6 29 16 11 4 -13 14 8 6 10 10 24 3 23 9 9 6 5 6 7 6 7 9 7 6 5 6 8
7 7 1 11 6 4 5 3 6 14 31 21 0 3 -14 -14 -0 -5 -14 -0 -1 20 39 29 17 -5 8 11 15 14 8 26 6 15 6 7 5 6 6 6 8 6 6 7 7 7 7
4 7 3 3 10 7 4 5 5 9 17 25 20 4 3 -1 -0 -1 -4 2 1 2 8 47 20 15 9 13 10 20 14 8 17 14 7 10 6 7 7 7 7 7 7 5 6 4 4
7 6 7 4 7 7 5 6 4 8 8 24 7 24 34 0 13 3 -1 7 2 -6 -0 1 26 24 7 5 11 14 26 17 10 9 10 11 7 6 7 6 5 6 7 7 5 4 4
6 5 5 5 5 9 8 6 4 1 9 6 21 11 15 20 7 -3 -3 -1 -3 -2 -0 3 9 12 18 18 6 8 26 26 12 12 9 7 9 9 6 8 6 5 5 5 4 4 5
5 7 7 3 7 5 9 8 6 4 0 9 8 16 11 17 26 15 14 16 6 12 17 8 3 3 3 7 15 10 10 14 20 19 11 11 10 8 8 6 6 3 5 5 5 6 5
4 7 5 5 6 7 8 9 7 6 4 3 8 11 16 12 3 1 1 22 11 13 16 5 12 16 -1 5 10 16 17 9 10 13 17 17 13 9 4 3 5 8 3 2 7 7 7
4 3 6 7 2 9 5 10 6 7 6 4 3 7 11 12 12 12 14 10 11 20 18 21 8 6 4 9 1 7 6 14 17 17 19 14 17 15 8 7 10 1 6 8 13 14 14
3 4 5 5 5 4 7 6 15 8 7 6 6 2 5 9 13 12 9 4 8 8 19 16 16 17 11 -3 14 10 14 11 8 15 23 21 12 6 12 13 13 14 16 11 9 7 9
4 4 3 6 9 3 4 7 9 14 10 7 7 6 7 3 6 11 13 9 11 11 6 15 16 7 18 -0 6 20 17 10 9 10 11 19 19 19 13 12 10 6 6 8 7 6 8
3 5 3 5 5 8 3 4 7 8 12 7 8 7 6 7 8 6 8 12 13 13 16 9 7 15 16 16 12 10 8 11 11 10 10 10 11 13 12 10 7 8 6 9 10 14 17
4 4 4 6 6 5 7 3 6 9 6 12 6 8 8 7 6 8 9 7 9 12 11 12 13 16 8 4 4 4 8 7 8 7 8 10 8 11 9 13 14 12 10 8 21 23 10
3 3 5 6 6 5 8 7 3 5 7 5 7 10 5 8 7 6 5 7 8 5 8 9 9 11 14 17 15 14 14 14 9 7 8 11 10 15 19 22 26 27 23 13 8 7 5
4 2 3 6 5 4 5 10 6 3 2 6 7 6 11 7 7 8 7 5 6 6 8 5 6 6 6 8 9 12 16 15 16 15 15 14 13 10 10 9 7 6 6 3 5 5 6
5 3 4 5 4 8 4 8 9 7 3 4 4 6 8 6 10 5 5 9 7 5 6 6 7 4 4 4 3 3 3 2 3 2 1 1 0 2 1 2 3 4 5 3 4 6 9
4 2 4 3 5 6 5 6 7 9 7 2 3 1 6 3 5 8 10 6 7 9 6 5 7 7 7 6 5 4 2 3 2 2 2 3 3 3 4 4 1 1 4 4 7 7 9
3 3 2 3 4 6 6 3 6 9 10 6 5 2 2 2 6 6 7 8 10 5 8 10 6 4 7 6 7 7 7 6 7 7 8 5 8 7 9 10 11 6 3 7 7 8 8
4 4 4 4 4 5 5 6 8 5 12 10 4 2 1 5 3 6 6 7 6 7 9 6 5 11 10 7 7 6 7 6 8 5 8 7 6 8 7 13 15 9 6 3 4 7 2
5 4 4 4 5 5 6 6 7 7 7 11 8 2 3 1 4 10 4 5 6 5 4 8 10 9 5 5 6 9 9 9 9 8 10 12 9 15 16 8 7 10 18 13 17 22 16
6 5 5 4 3 4 5 6 6 7 11 10 13 6 7 5 -0 1 9 3 5 6 6 6 3 4 6 7 10 7 7 5 5 4 6 3 8 3 4 5 5 5 7 6 6 7 3
7 3 4 6 6 5 6 10 10 12 9 11 11 11 11 8 5 4 1 8 6 5 5 7 6 4 3 5 3 9 7 6 9 8 7 8 6 5 6 7 8 6 7 6 8 1 0
-11 13 9 10 8 8 8 9 10 13 13 14 11 10 4 7 14 2 6 10 10 8 6 3 5 7 5 4 3 4 3 1 9 6 5 6 7 6 5 9 14 6 5 9 12 8 11
-0 3 9 11 8 9 7 5 7 8 9 5 2 1 1 5 10 8 2 10 17 3 4 10 4 5 3 5 4 3 4 4 1 9 6 1 2 7 5 3 5 2 -1 1 9 10 6
12 11 15 11 10 12 5 3 5 6 7 7 1 2 5 -0 14 15 17 14 11 21 -3 10 10 12 9 6 4 4 5 6 4 6 11 7 2 -2 4 5 4 5 5 3 0 2 5
13 3 13 11 9 9 5 6 7 7 -0 4 1 -3 -4 1 7 10 8 7 20 15 25 12 4 1 12 9 3 4 6 8 5 3 12 10 6 5 -1 4 8 7 6 6 4 2 1
Height
5777 5768 5759 5749 5738 5724 5708 5693 5681 5667 5653 5643 5636 5626 5617 5607 5598 5588 5579 5575 5575 5578 5582 5590 5594 5601 5613 5624 5635 5645 5656 5667 5684 5695 5706 5718 5729 5740 5749 5759 5767 5776 5783 5789 5795 5800 5805
5779 5771 5762 5752 5742 5729 5714 5699 5686 5673 5661 5652 5645 5636 5625 5613 5604 5595 5590 5585 5586 5589 5595 5601 5608 5619 5625 5633 5641 5650 5661 5671 5684 5698 5708 5718 5728 5738 5748 5755 5763 5773 5780 5784 5790 5795 5800
5781 5774 5765 5756 5746 5734 5720 5706 5692 5680 5667 5660 5654 5648 5636 5624 5614 5606 5601 5599 5601 5604 5609 5613 5621 5626 5633 5640 5646 5655 5663 5674 5685 5697 5709 5719 5727 5738 5746 5752 5759 5768 5776 5782 5786 5791 5795
5784 5776 5768 5759 5750 5739 5727 5713 5699 5688 5676 5668 5663 5657 5648 5637 5627 5620 5617 5612 5615 5618 5621 5626 5630 5637 5641 5651 5658 5663 5668 5677 5687 5698 5709 5718 5728 5736 5745 5753 5758 5765 5773 5779 5783 5787 5792
5787 5779 5771 5763 5754 5745 5735 5722 5709 5697 5687 5678 5672 5666 5659 5651 5642 5636 5633 5630 5627 5631 5635 5637 5641 5647 5655 5658 5661 5666 5673 5682 5691 5701 5710 5718 5727 5735 5743 5750 5756 5763 5771 5777 5781 5784 5788
5789 5783 5775 5767 5759 5751 5742 5731 5719 5707 5698 5689 5682 5675 5669 5664 5657 5652 5652 5648 5644 5644 5646 5647 5651 5656 5657 5662 5666 5669 5676 5684 5693 5702 5711 5719 5727 5735 5742 5749 5756 5761 5766 5772 5777 5781 5784
5792 5786 5778 5771 5763 5756 5748 5739 5729 5718 5708 5700 5692 5685 5678 5673 5669 5663 5661 5660 5660 5658 5658 5658 5658 5662 5663 5667 5669 5674 5679 5686 5694 5703 5711 5719 5728 5734 5740 5747 5753 5758 5763 5768 5774 5778 5782
5795 5789 5782 5775 5768 5761 5754 5746 5737 5728 5718 5709 5702 5694 5687 5682 5676 5673 5671 5671 5670 5668 5666 5665 5666 5667 5669 5673 5677 5678 5682 5689 5695 5703 5710 5720 5727 5734 5740 5747 5752 5757 5762 5767 5771 5774 5778
5798 5792 5786 5779 5772 5765 5759 5752 5744 5736 5728 5718 5710 5703 5697 5690 5685 5680 5680 5679 5676 5674 5675 5673 5674 5674 5677 5678 5680 5683 5687 5690 5697 5704 5711 5718 5727 5733 5739 5745 5750 5755 5759 5763 5767 5770 5772
5802 5795 5790 5783 5776 5770 5763 5757 5752 5744 5736 5728 5721 5713 5707 5701 5696 5692 5689 5685 5682 5681 5680 5680 5680 5682 5682 5683 5686 5687 5691 5695 5701 5706 5712 5718 5724 5731 5737 5742 5748 5752 5757 5760 5763 5766 5768
5804 5798 5793 5787 5780 5774 5768 5762 5757 5752 5745 5737 5729 5723 5716 5709 5705 5701 5698 5693 5689 5687 5686 5687 5687 5688 5687 5690 5693 5694 5697 5699 5702 5708 5714 5720 5725 5730 5735 5741 5746 5751 5754 5757 5760 5762 5764
5805 5800 5796 5790 5783 5778 5773 5767 5762 5757 5752 5746 5740 5733 5726 5720 5714 5709 5705 5702 5698 5696 5690 5690 5692 5693 5696 5697 5698 5701 5703 5704 5707 5709 5713 5718 5724 5730 5735 5740 5745 5749 5752 5755 5757 5758 5759
5805 5801 5797 5793 5787 5781 5776 5771 5766 5761 5756 5752 5747 5741 5735 5729 5724 5718 5714 5712 5710 5703 5699 5696 5696 5698 5699 5703 5704 5705 5707 5709 5711 5713 5715 5719 5724 5729 5734 5739 5743 5747 5750 5752 5754 5755 5755
5806 5802 5798 5794 5789 5785 5780 5775 5770 5765 5760 5756 5752 5747 5742 5737 5732 5727 5722 5719 5717 5710 5707 5705 5703 5702 5704 5706 5707 5709 5710 5712 5714 5716 5719 5721 5725 5728 5733 5738 5742 5746 5748 5750 5750 5751 5752
5804 5802 5798 5795 5791 5787 5783 5778 5774 5769 5764 5759 5755 5752 5748 5743 5739 5734 5730 5727 5722 5718 5715 5713 5712 5710 5709 5709 5711 5712 5713 5715 5717 5719 5722 5725 5728 5731 5735 5739 5742 5743 5745 5748 5747 5748 5747
5802 5801 5798 5795 5792 5788 5785 5781 5777 5773 5768 5763 5759 5755 5751 5748 5745 5741 5736 5734 5729 5726 5722 5720 5719 5717 5716 5716 5716 5716 5718 5719 5721 5723 5726 5728 5730 5733 5735 5738 5741 5742 5744 5746 5745 5745 5745
5800 5798 5797 5794 5791 5788 5785 5782 5778 5775 5772 5767 5762 5758 5754 5751 5747 5746 5741 5739 5735 5732 5729 5727 5725 5724 5723 5722 5722 5722 5723 5723 5724 5726 5728 5730 5732 5734 5735 5737 5738 5740 5741 5742 5742 5742 5741
5796 5794 5793 5791 5789 5786 5784 5782 5779 5776 5773 5770 5766 5762 5757 5754 5752 5748 5746 5743 5740 5738 5736 5734 5732 5730 5729 5728 5728 5727 5728 5728 5728 5729 5731 5732 5733 5734 5736 5736 5737 5738 5738 5739 5739 5740 5739
5792 5791 5789 5788 5786 5784 5782 5780 5778 5776 5773 5771 5767 5765 5761 5757 5754 5750 5747 5746 5744 5742 5740 5738 5736 5735 5734 5732 5733 5732 5733 5733 5733 5733 5734 5735 5735 5736 5737 5739 5739 5738 5738 5738 5738 5738 5738
5787 5787 5785 5784 5783 5781 5779 5777 5775 5774 5772 5770 5768 5765 5763 5759 5756 5753 5750 5747 5745 5744 5743 5741 5740 5737 5736 5736 5735 5735 5735 5735 5735 5735 5736 5736 5736 5736 5737 5736 5737 5737 5736 5736 5735 5735 5734
5779 5780 5780 5779 5778 5777 5775 5773 5771 5770 5768 5768 5766 5763 5761 5758 5756 5754 5752 5749 5746 5745 5743 5741 5741 5741 5740 5737 5736 5736 5736 5736 5737 5737 5736 5736 5737 5737 5736 5735 5735 5735 5733 5731 5732 5731 5730
5771 5771 5772 5772 5773 5772 5770 5768 5766 5765 5764 5764 5762 5761 5759 5757 5755 5752 5750 5749 5747 5744 5743 5742 5740 5739 5739 5740 5739 5737 5736 5735 5735 5735 5735 5734 5734 5733 5731 5730 5731 5731 5727 5726 5726 5725 5723
5762 5763 5764 5764 5764 5765 5764 5763 5761 5760 5759 5757 5756 5755 5755 5754 5752 5750 5748 5746 5744 5743 5741 5739 5739 5737 5736 5737 5737 5736 5735 5733 5732 5731 5731 5730 5730 5730 5731 5728 5727 5727 5724 5722 5721 5718 5716
5754 5754 5755 5754 5755 5755 5755 5755 5754 5754 5752 5751 5750 5749 5749 5748 5747 5746 5745 5743 5742 5740 5739 5738 5735 5734 5734 5732 5732 5732 5732 5732 5730 5729 5727 5725 5726 5726 5725 5722 5723 5722 5719 5716 5714 5710 5710
5744 5744 5745 5746 5745 5745 5745 5745 5745 5745 5745 5744 5743 5743 5742 5741 5740 5740 5739 5738 5737 5736 5735 5734 5732 5730 5728 5727 5727 5726 5726 5727 5726 5725 5723 5721 5718 5716 5718 5718 5716 5709 5708 5706 5706 5703 5700
5733 5734 5735 5736 5736 5736 5736 5735 5735 5735 5736 5736 5736 5736 5736 5735 5734 5733 5733 5731 5730 5729 5729 5728 5728 5726 5725 5723 5721 5720 5718 5718 5719 5719 5715 5714 5713 5712 5708 5708 5709 5704 5700 5696 5695 5694 5691
5720 5722 5723 5725 5726 5726 5725 5726 5726 5725 5726 5727 5727 5727 5728 5726 5724 5724 5723 5722 5721 5721 5720 5720 5719 5719 5717 5716 5714 5713 5713 5711 5711 5710 5709 5706 5704 5704 5701 5698 5699 5692 5687 5686 5688 5690 5685
5706 5708 5710 5712 5714 5715 5716 5715 5715 5715 5714 5716 5716 5716 5717 5717 5714 5712 5712 5711 5710 5708 5709 5710 5710 5709 5709 5708 5706 5705 5705 5705 5703 5701 5699 5698 5697 5694 5692 5690 5689 5683 5678 5679 5677 5677 5675
5693 5695 5697 5699 5701 5703 5705 5705 5705 5705 5705 5705 5705 5704 5704 5704 5703 5700 5700 5699 5699 5697 5697 5696 5697 5697 5697 5696 5696 5695 5695 5694 5693 5693 5690 5690 5688 5684 5685 5681 5678 5672 5668 5666 5663 5662 5662